Home   Weather   Karlsruhe   Past weeks

Flag for Germany Past Weather in Karlsruhe, Baden-Württemberg, Germany — Yesterday and Last 2 Weeks

Now
59 °F

Scattered showers. Partly sunny.


Feels Like: 58 °F
Forecast: 51 / 61 °F
Wind: 7 mph from Southwest

Location: Karlsruhe - Baden Wurttemberg

Current Time: Oct 1, 2016 at 7:27:25 PM

Latest Report: Oct 1, 2016 at 6:50 PM


Visibility: N/A

Pressure: 29.86 "Hg

Humidity: 94%

Dew Point: 57 °F

Location of KarlsruheLocation

Past Weather in Karlsruhe — Graph

°F

Karlsruhe Temperature Yesterday

Maximum temperature yesterday: 73 °F (at 2:50 PM)
Minimum temperature yesterday: 57 °F (at 10:50 PM)
Average temperature yesterday: 65 °F

High & Low Weather Summary for the Past Weeks

 TemperatureHumidityPressure
High79 °F (Sep 25, 5:20 PM)100% (Sep 16, 10:50 PM)30.42 "Hg (Sep 16, 10:50 PM)
Low39 °F (Sep 22, 7:50 AM)36% (Sep 29, 6:20 PM)29.83 "Hg (Oct 1, 6:20 AM)
Average61 °F79%30.12 "Hg
* Reported Sep 16 6:20 PM — Oct 1 6:01 PM, Karlsruhe, Weather by CustomWeather, © 2016

Note: Actual official high and low records may vary slightly from our data, if they occured in-between our weather recording intervals... More about our weather records

Advertising

Karlsruhe Weather History for the Previous 24 Hours

Scroll right to see more
 ConditionsComfort  
Time TempWeatherWind HumidityBarometerVisibility
6:01 PM
Sat, Oct 1
61 °FRain showers. Partly sunny.8 mph94%29.86 "Hg6 mi
5:53 PM63 °FSprinkles. Broken clouds.10 mph83%29.86 "Hg6 mi
5:20 PM63 °FBroken clouds.14 mph83%29.86 "HgN/A
4:50 PM63 °FBroken clouds.16 mph88%29.86 "HgN/A
4:20 PM63 °FLight rain. Broken clouds.16 mph88%29.86 "HgN/A
3:50 PM63 °FLight rain. Broken clouds.14 mph94%29.83 "HgN/A
3:20 PM63 °FLight rain. Broken clouds.14 mph94%29.83 "HgN/A
2:50 PM63 °FLight rain. Broken clouds.14 mph94%29.86 "HgN/A
2:20 PM63 °FRain. Broken clouds.15 mph94%29.86 "Hg5 mi
1:50 PM64 °FRain. Broken clouds.10 mph88%29.86 "Hg5 mi
1:20 PM64 °FLight rain. Broken clouds.14 mph88%29.86 "Hg6 mi
12:50 PM64 °FBroken clouds.10 mph88%29.86 "HgN/A
12:20 PM63 °FLight rain. Broken clouds.6 mph88%29.86 "HgN/A
11:50 AM63 °FLight rain. Broken clouds.6 mph88%29.86 "HgN/A
11:20 AM61 °FLight rain. Broken clouds.6 mph94%29.86 "Hg6 mi
10:50 AM61 °FLight rain. Broken clouds.8 mph94%29.86 "Hg5 mi
10:20 AM61 °FLight rain. Broken clouds.6 mph94%29.86 "Hg6 mi
9:50 AM61 °FLight rain. Broken clouds.8 mph94%29.86 "Hg5 mi
9:20 AM59 °FDrizzle. Broken clouds.7 mph100%29.86 "Hg4 mi
8:50 AM59 °FLight rain. Broken clouds.5 mph100%29.86 "Hg4 mi
8:20 AM59 °FLight rain. Broken clouds.2 mph94%29.86 "Hg5 mi
7:50 AM57 °FRain. Broken clouds.5 mph100%29.86 "Hg5 mi
7:20 AM57 °FPartly cloudy.1 mph100%29.83 "Hg6 mi
6:50 AM57 °FPassing clouds.2 mph100%29.83 "Hg6 mi
6:20 AM59 °FScattered showers. Partly cloudy.6 mph94%29.83 "HgN/A
5:50 AM59 °FLight rain. Partly cloudy.3 mph100%29.86 "Hg6 mi
5:20 AM59 °FRain. Fog.2 mph94%29.89 "Hg3 mi
4:50 AM59 °FFog.2 mph100%29.89 "Hg3 mi
11:20 PM
Fri, Sep 30
57 °FClear.No wind94%29.95 "Hg10 mi
10:50 PM57 °FClear.3 mph100%29.98 "Hg10 mi
10:20 PM59 °FClear.2 mph94%29.98 "Hg10 mi
9:50 PM59 °FClear.3 mph94%29.98 "Hg10 mi
9:20 PM61 °FClear.3 mph88%29.98 "Hg10 mi
8:50 PM61 °FClear.3 mph88%29.98 "Hg10 mi
8:20 PM61 °FClear.3 mph88%29.98 "Hg10 mi
7:50 PM63 °FClear.3 mph83%29.98 "Hg10 mi
7:20 PM64 °FClear.2 mph73%29.98 "Hg10 mi
Weather by CustomWeather, © 2016

See weather overviewHow to use our weather pages